TimeCDT,TemperatureF,Dew PointF,Humidity,Sea Level PressureIn,VisibilityMPH,Wind Direction,Wind SpeedMPH,Gust SpeedMPH,PrecipitationIn,Events,Conditions,WindDirDegrees,DateUTC
12:27 AM,64.4,64.4,100,30.05,2.0,East,5.8,-,0.00,,Overcast,90,2013-07-30 05:27:00
12:54 AM,64.9,64.0,97,30.04,2.0,ENE,4.6,-,0.00,,Overcast,70,2013-07-30 05:54:00
1:39 AM,64.4,64.4,100,30.05,1.8,ENE,5.8,-,N/A,,Overcast,60,2013-07-30 06:39:00
1:54 AM,64.9,64.0,97,30.03,1.8,ENE,4.6,-,N/A,,Overcast,60,2013-07-30 06:54:00
2:54 AM,64.9,64.0,97,30.02,1.0,NNE,5.8,-,N/A,,Overcast,30,2013-07-30 07:54:00
3:05 AM,64.4,64.4,100,30.04,0.8,NNE,4.6,-,N/A,,Overcast,30,2013-07-30 08:05:00
3:54 AM,64.0,64.0,100,30.03,0.8,NE,4.6,-,N/A,,Mist,50,2013-07-30 08:54:00
4:54 AM,64.9,64.0,97,30.04,1.2,NE,4.6,-,N/A,,Overcast,40,2013-07-30 09:54:00
5:12 AM,64.4,64.4,100,30.05,2.5,NE,4.6,-,N/A,,Overcast,40,2013-07-30 10:12:00
5:25 AM,64.4,64.4,100,30.05,1.8,NE,4.6,-,N/A,,Overcast,40,2013-07-30 10:25:00
5:54 AM,64.9,64.0,97,30.04,1.8,North,4.6,-,N/A,,Overcast,10,2013-07-30 10:54:00
6:17 AM,64.4,64.4,100,30.06,3.0,North,5.8,-,N/A,,Overcast,10,2013-07-30 11:17:00
6:20 AM,64.4,64.4,100,30.06,1.0,NNE,5.8,-,N/A,,Overcast,20,2013-07-30 11:20:00
6:54 AM,64.9,64.0,97,30.06,1.0,North,5.8,-,N/A,,Overcast,360,2013-07-30 11:54:00
7:54 AM,64.9,64.0,97,30.06,2.0,NNE,4.6,-,N/A,,Overcast,30,2013-07-30 12:54:00
8:21 AM,66.2,64.4,94,30.09,3.0,NE,4.6,-,N/A,,Overcast,40,2013-07-30 13:21:00
8:54 AM,66.0,64.0,93,30.07,4.0,NNE,3.5,-,N/A,,Overcast,20,2013-07-30 13:54:00
9:11 AM,68.0,64.4,88,30.09,4.0,NE,3.5,-,N/A,,Overcast,50,2013-07-30 14:11:00
9:54 AM,69.1,64.9,87,30.06,10.0,NNW,8.1,-,N/A,,Overcast,330,2013-07-30 14:54:00
10:25 AM,69.8,64.4,83,30.08,10.0,NNW,6.9,-,N/A,,Overcast,340,2013-07-30 15:25:00
10:54 AM,71.1,64.9,81,30.06,10.0,North,6.9,-,N/A,,Overcast,360,2013-07-30 15:54:00
11:54 AM,73.0,64.9,76,30.07,10.0,North,5.8,-,N/A,,Overcast,350,2013-07-30 16:54:00
12:15 PM,73.4,64.4,73,30.09,10.0,NNE,9.2,-,N/A,,Overcast,30,2013-07-30 17:15:00
12:54 PM,73.9,64.9,73,30.07,10.0,North,5.8,-,N/A,,Overcast,360,2013-07-30 17:54:00
1:38 PM,75.2,64.4,69,30.09,10.0,NE,4.6,-,N/A,,Overcast,40,2013-07-30 18:38:00
1:54 PM,75.0,64.9,71,30.06,10.0,NNE,4.6,-,N/A,,Overcast,20,2013-07-30 18:54:00
2:54 PM,75.9,64.9,69,30.06,10.0,North,5.8,-,N/A,,Overcast,350,2013-07-30 19:54:00
3:06 PM,77.0,64.4,65,30.08,10.0,NNW,3.5,-,N/A,,Overcast,330,2013-07-30 20:06:00
3:54 PM,77.0,64.9,66,30.05,10.0,Calm,Calm,-,N/A,,Overcast,0,2013-07-30 20:54:00
4:23 PM,78.8,64.4,61,30.08,10.0,NNE,5.8,-,N/A,,Overcast,20,2013-07-30 21:23:00
4:54 PM,77.0,64.0,64,30.05,10.0,North,5.8,-,N/A,,Overcast,360,2013-07-30 21:54:00
5:54 PM,78.1,64.0,62,30.04,10.0,North,6.9,-,N/A,,Overcast,10,2013-07-30 22:54:00
6:54 PM,75.9,64.9,69,30.03,10.0,NNE,5.8,-,N/A,,Overcast,30,2013-07-30 23:54:00
7:54 PM,75.0,64.9,71,30.06,10.0,NNE,8.1,-,N/A,,Overcast,30,2013-07-31 00:54:00
8:54 PM,73.0,66.0,79,30.07,9.0,NE,11.5,-,N/A,,Overcast,40,2013-07-31 01:54:00
9:54 PM,72.0,66.0,81,30.11,9.0,NNE,6.9,-,N/A,,Overcast,20,2013-07-31 02:54:00
10:54 PM,68.0,64.0,87,30.12,10.0,North,5.8,-,N/A,,Scattered Clouds,10,2013-07-31 03:54:00
11:54 PM,68.0,64.9,90,30.10,10.0,Calm,Calm,-,N/A,,Partly Cloudy,0,2013-07-31 04:54:00